When you browse on this site, cookies collect data to enhance your experience and personalize the content and advertising you see.
Visit our Privacy Policy to learn more. By continuing to use the site, you agree to this use of cookies and data.
  • In Italy
  • List of Countries
  • For 7 days
  • Water Temperature
  • Satellite Maps
  • Weather Map
  • Weather Widgets
  • user-avatar
    Login

    Hourly Weather Fier

    Today, 18 June, Tuesday

    Time Temperature Precipitation Wind Pressure Humidity
    00:00 +24°C° 0 mm 1 mps 759 mmHg 72%
    01:00 +24°C° 0 mm 1 mps 758 mmHg 73%
    02:00 +23°C° 0.2 mm 1 mps 759 mmHg 73%
    03:00 +23°C° 0.2 mm 1 mps 759 mmHg 74%
    04:00 +23°C° 0.2 mm 1 mps 759 mmHg 75%
    05:00 +24°C° 0 mm 1 mps 759 mmHg 70%
    06:00 +25°C° 0 mm 1 mps 759 mmHg 66%
    07:00 +27°C° 0 mm 1 mps 759 mmHg 62%
    08:00 +28°C° 0 mm 1 mps 759 mmHg 57%
    09:00 +30°C° 0 mm 1 mps 759 mmHg 53%
    10:00 +31°C° 0 mm 1 mps 759 mmHg 48%
    11:00 +31°C° 0 mm 2 mps 759 mmHg 49%
    12:00 +33°C° 0 mm 3 mps 759 mmHg 49%
    13:00 +33°C° 0 mm 4 mps 759 mmHg 48%
    14:00 +32°C° 0 mm 4 mps 758 mmHg 50%
    15:00 +31°C° 0 mm 3 mps 758 mmHg 52%
    16:00 +30°C° 0 mm 3 mps 757 mmHg 54%
    17:00 +29°C° 0 mm 2 mps 758 mmHg 61%
    18:00 +27°C° 0 mm 2 mps 758 mmHg 67%
    19:00 +26°C° 0 mm 1 mps 758 mmHg 74%
    20:00 +25°C° 0 mm 1 mps 758 mmHg 75%
    21:00 +25°C° 0 mm 1 mps 759 mmHg 77%
    22:00 +24°C° 0 mm 1 mps 759 mmHg 79%
    23:00 +24°C° 0 mm 1 mps 759 mmHg 77%

    Tomorrow, 19 June, Wednesday

    Time Temperature Precipitation Wind Pressure Humidity
    00:00 +24°C° 0 mm 1 mps 759 mmHg 76%
    01:00 +24°C° 0 mm 1 mps 759 mmHg 75%
    02:00 +23°C° 0 mm 1 mps 758 mmHg 75%
    03:00 +23°C° 0 mm 1 mps 758 mmHg 74%
    04:00 +23°C° 0 mm 1 mps 758 mmHg 74%
    05:00 +24°C° 0 mm 1 mps 758 mmHg 69%
    06:00 +25°C° 0 mm 1 mps 758 mmHg 64%
    07:00 +25°C° 0 mm 0 mps 758 mmHg 60%
    08:00 +28°C° 0 mm 1 mps 758 mmHg 56%
    09:00 +29°C° 0 mm 2 mps 758 mmHg 52%
    10:00 +30°C° 0 mm 2 mps 758 mmHg 48%
    11:00 +31°C° 0 mm 3 mps 758 mmHg 48%
    12:00 +31°C° 0 mm 3 mps 758 mmHg 47%
    13:00 +32°C° 0 mm 4 mps 758 mmHg 47%
    14:00 +32°C° 0 mm 4 mps 758 mmHg 49%
    15:00 +30°C° 0 mm 4 mps 757 mmHg 52%
    16:00 +30°C° 0 mm 4 mps 757 mmHg 54%
    17:00 +28°C° 0 mm 3 mps 757 mmHg 61%
    18:00 +27°C° 0 mm 2 mps 757 mmHg 68%
    19:00 +26°C° 0 mm 1 mps 757 mmHg 74%
    20:00 +25°C° 0 mm 1 mps 758 mmHg 76%
    21:00 +25°C° 0 mm 1 mps 758 mmHg 77%
    22:00 +24°C° 0 mm 1 mps 758 mmHg 78%
    23:00 +24°C° 0 mm 1 mps 758 mmHg 78%

    Day after tomorrow, 20 June, Thursday

    Time Temperature Precipitation Wind Pressure Humidity
    00:00 +23°C° 0 mm 1 mps 758 mmHg 79%
    01:00 +23°C° 0 mm 1 mps 758 mmHg 79%
    02:00 +23°C° 0 mm 1 mps 758 mmHg 80%
    03:00 +22°C° 0 mm 1 mps 757 mmHg 81%
    04:00 +22°C° 0 mm 1 mps 757 mmHg 82%
    05:00 +23°C° 0 mm 1 mps 758 mmHg 76%
    06:00 +25°C° 0 mm 1 mps 758 mmHg 69%
    07:00 +26°C° 0 mm 1 mps 758 mmHg 63%
    08:00 +28°C° 0 mm 1 mps 758 mmHg 58%
    09:00 +29°C° 0 mm 2 mps 758 mmHg 52%
    10:00 +30°C° 0 mm 2 mps 758 mmHg 47%
    11:00 +30°C° 0 mm 3 mps 758 mmHg 47%
    12:00 +32°C° 0 mm 4 mps 757 mmHg 47%
    13:00 +32°C° 0 mm 4 mps 757 mmHg 47%
    14:00 +30°C° 0 mm 4 mps 757 mmHg 49%
    15:00 +30°C° 0 mm 4 mps 757 mmHg 51%
    16:00 +30°C° 0 mm 4 mps 757 mmHg 53%
    17:00 +28°C° 0 mm 3 mps 757 mmHg 59%
    18:00 +27°C° 0 mm 2 mps 757 mmHg 65%
    19:00 +25°C° 0 mm 1 mps 757 mmHg 71%
    20:00 +25°C° 0 mm 1 mps 758 mmHg 72%
    21:00 +24°C° 0 mm 1 mps 758 mmHg 73%
    22:00 +24°C° 0 mm 1 mps 758 mmHg 74%
    23:00 +23°C° 0 mm 1 mps 758 mmHg 75%

    21 June, Friday

    Time Temperature Precipitation Wind Pressure Humidity
    00:00 +23°C° 0 mm 1 mps 758 mmHg 75%
    01:00 +23°C° 0 mm 1 mps 758 mmHg 76%
    02:00 +22°C° 0 mm 1 mps 758 mmHg 77%
    03:00 +22°C° 0 mm 1 mps 758 mmHg 77%
    04:00 +22°C° 0 mm 1 mps 758 mmHg 78%
    05:00 +23°C° 0 mm 1 mps 758 mmHg 73%
    06:00 +25°C° 0 mm 1 mps 759 mmHg 68%
    07:00 +26°C° 0 mm 1 mps 759 mmHg 63%
    08:00 +28°C° 0 mm 2 mps 759 mmHg 58%
    09:00 +29°C° 0 mm 2 mps 759 mmHg 52%
    10:00 +31°C° 0 mm 2 mps 759 mmHg 47%
    11:00 +31°C° 0 mm 3 mps 759 mmHg 46%
    12:00 +33°C° 0 mm 4 mps 759 mmHg 45%
    13:00 +33°C° 0 mm 5 mps 759 mmHg 44%
    14:00 +32°C° 0 mm 4 mps 758 mmHg 45%
    15:00 +32°C° 0 mm 4 mps 758 mmHg 46%
    16:00 +30°C° 0 mm 3 mps 758 mmHg 48%
    17:00 +29°C° 0 mm 3 mps 758 mmHg 54%
    18:00 +27°C° 0 mm 2 mps 758 mmHg 59%
    19:00 +26°C° 0 mm 1 mps 758 mmHg 65%
    20:00 +25°C° 0 mm 1 mps 759 mmHg 66%
    21:00 +24°C° 0 mm 1 mps 759 mmHg 67%
    22:00 +24°C° 0 mm 1 mps 759 mmHg 68%
    23:00 +24°C° 0 mm 1 mps 759 mmHg 68%

    22 June, Saturday

    Time Temperature Precipitation Wind Pressure Humidity
    00:00 +23°C° 0 mm 1 mps 759 mmHg 68%
    01:00 +23°C° 0 mm 1 mps 759 mmHg 67%
    02:00 +23°C° 0 mm 1 mps 759 mmHg 67%
    03:00 +23°C° 0 mm 1 mps 759 mmHg 67%
    04:00 +23°C° 0 mm 1 mps 759 mmHg 66%
    05:00 +24°C° 0 mm 1 mps 759 mmHg 62%
    06:00 +26°C° 0 mm 1 mps 759 mmHg 57%
    07:00 +28°C° 0 mm 2 mps 759 mmHg 53%
    08:00 +29°C° 0 mm 2 mps 759 mmHg 49%
    09:00 +31°C° 0 mm 2 mps 760 mmHg 45%
    10:00 +32°C° 0 mm 2 mps 760 mmHg 42%
    11:00 +34°C° 0 mm 2 mps 759 mmHg 39%
    12:00 +35°C° 0 mm 2 mps 759 mmHg 36%
    13:00 +36°C° 0 mm 2 mps 759 mmHg 34%
    14:00 +35°C° 0 mm 3 mps 759 mmHg 36%
    15:00 +35°C° 0 mm 3 mps 758 mmHg 38%
    16:00 +34°C° 0 mm 4 mps 758 mmHg 40%
    17:00 +33°C° 0 mm 3 mps 758 mmHg 46%
    18:00 +30°C° 0 mm 2 mps 758 mmHg 52%
    19:00 +28°C° 0 mm 1 mps 758 mmHg 58%
    20:00 +28°C° 0 mm 1 mps 759 mmHg 57%
    21:00 +27°C° 0 mm 1 mps 759 mmHg 56%
    22:00 +27°C° 0 mm 1 mps 759 mmHg 56%
    23:00 +27°C° 0 mm 2 mps 759 mmHg 56%

    23 June, Sunday

    Time Temperature Precipitation Wind Pressure Humidity
    00:00 +26°C° 0 mm 2 mps 759 mmHg 56%
    01:00 +26°C° 0 mm 2 mps 759 mmHg 57%
    02:00 +26°C° 0 mm 2 mps 759 mmHg 56%
    03:00 +25°C° 0 mm 2 mps 758 mmHg 56%
    04:00 +25°C° 0 mm 2 mps 758 mmHg 56%
    05:00 +27°C° 0 mm 2 mps 759 mmHg 53%
    06:00 +28°C° 0 mm 1 mps 759 mmHg 51%
    07:00 +30°C° 0 mm 1 mps 759 mmHg 48%
    08:00 +31°C° 0 mm 2 mps 759 mmHg 46%
    09:00 +32°C° 0 mm 2 mps 759 mmHg 43%
    10:00 +34°C° 0 mm 3 mps 760 mmHg 41%
    11:00 +34°C° 0 mm 3 mps 759 mmHg 42%
    12:00 +34°C° 0 mm 4 mps 759 mmHg 43%
    13:00 +34°C° 0 mm 4 mps 759 mmHg 44%
    14:00 +34°C° 0 mm 3 mps 759 mmHg 46%
    15:00 +33°C° 0 mm 3 mps 759 mmHg 49%
    16:00 +33°C° 0 mm 3 mps 759 mmHg 51%
    17:00 +30°C° 0 mm 2 mps 759 mmHg 59%
    18:00 +28°C° 0 mm 1 mps 759 mmHg 66%
    19:00 +27°C° 0 mm 1 mps 759 mmHg 74%
    20:00 +26°C° 0 mm 1 mps 760 mmHg 75%
    21:00 +26°C° 0 mm 1 mps 760 mmHg 76%
    22:00 +25°C° 0 mm 1 mps 760 mmHg 77%
    23:00 +25°C° 0 mm 1 mps 760 mmHg 77%
    Show more